Corpus Christi, TX

6:51 PM CDT on May 27, 2017 (GMT -0500)
Corpus Christi International

Weather History for KCRP - January, 2013

Change the Weather History Date:

Monday, January 7, 2013

  Actual Average Record
Temperature  
Mean Temperature 53 °F 57 °F  
Max Temperature 65 °F 66 °F 90 °F (1989)
Min Temperature 40 °F 47 °F 25 °F (1912)
Degree Days  
Heating Degree Days 12 9  
Month to date heating degree days 92 63  
Since 1 July heating degree days 267 414  
Cooling Degree Days 0 1  
Month to date cooling degree days 0 7  
Year to date cooling degree days 0 7  
Growing Degree Days 2 (Base 50)    
Moisture  
Dew Point 47 °F    
Average Humidity 75    
Maximum Humidity 93    
Minimum Humidity 56    
Precipitation  
Precipitation 0.01 in 0.05 in 1.84 in (1928)
Month to date precipitation 0.28 0.37  
Year to date precipitation 0.28 0.37  
Snow  
Snow 0.00 in - - ()
Month to date snowfall 0.0  
Since 1 July snowfall 0.0  
Snow Depth 0.00 in    
Sea Level Pressure  
Sea Level Pressure 30.16 in    
Wind  
Wind Speed 11 mph (NE)    
Max Wind Speed 20 mph    
Max Gust Speed 23 mph    
Visibility 9 miles    
Events Rain    
T = Trace of Precipitation, MM = Missing Value Source: NWS Daily Summary

Daily Weather History Graph

Daily Weather History Graph

Search for Another Location

Airport or City:

Trip Planner

Search our weather history database for the weather conditions in past years. The results will help you decide how hot, cold, wet, or windy it might be!

Date:

Astronomy

Jan. 07, 2013 Rise Set
Actual Time 7:22 AM CST 5:50 PM CST
Civil Twilight 6:56 AM CST 6:16 PM CST
Nautical Twilight 6:27 AM CST 6:45 PM CST
Astronomical Twilight 5:59 AM CST 7:13 PM CST
Moon 2:53 AM CST (1/7) 1:58 PM CST (1/7)
Length of Visible Light 11h 19m
Length of Day
10h 28m
Waning Crescent, 22% of the Moon is Illuminated
Jan 7
Waning Crescent
Jan 11
New
Jan 18
First Quarter
Jan 26
Full
Feb 3
Last Quarter

Hourly Weather History & Observations

Time (CST) Temp. Windchill Dew Point Humidity Pressure Visibility Wind Dir Wind Speed Gust Speed Precip Events Conditions
12:51 AM 44.6 °F 41.4 °F 37.4 °F 76% 30.32 in 10.0 mi NNE 5.8 mph - N/A   Clear
1:51 AM 42.1 °F 40.2 °F 36.0 °F 79% 30.30 in 10.0 mi North 3.5 mph - N/A   Clear
2:51 AM 43.0 °F 37.7 °F 37.9 °F 82% 30.27 in 10.0 mi North 9.2 mph - N/A   Clear
3:51 AM 42.1 °F 36.6 °F 37.0 °F 82% 30.27 in 10.0 mi North 9.2 mph - N/A   Clear
4:51 AM 39.9 °F 34.5 °F 36.0 °F 86% 30.24 in 10.0 mi North 8.1 mph - N/A   Clear
5:51 AM 42.1 °F 37.1 °F 37.0 °F 82% 30.24 in 10.0 mi NNE 8.1 mph - N/A   Clear
6:51 AM 41.0 °F 35.8 °F 37.0 °F 86% 30.24 in 10.0 mi North 8.1 mph - N/A   Clear
7:51 AM 45.0 °F 40.1 °F 39.9 °F 82% 30.24 in 10.0 mi NNE 9.2 mph - N/A   Clear
8:51 AM 48.9 °F - 42.1 °F 77% 30.25 in 9.0 mi NE 8.1 mph - N/A   Clear
9:51 AM 54.0 °F - 44.1 °F 69% 30.26 in 10.0 mi NE 8.1 mph - N/A   Clear
10:51 AM 60.8 °F - 46.4 °F 59% 30.25 in 10.0 mi NNE 8.1 mph - N/A   Clear
11:51 AM 63.0 °F - 46.9 °F 56% 30.22 in 10.0 mi ENE 10.4 mph - N/A   Clear
12:51 PM 64.0 °F - 48.0 °F 56% 30.15 in 10.0 mi East 12.7 mph - N/A   Clear
1:51 PM 64.9 °F - 50.0 °F 58% 30.12 in 10.0 mi East 15.0 mph - N/A   Clear
2:51 PM 64.0 °F - 51.1 °F 63% 30.09 in 10.0 mi East 12.7 mph - N/A   Clear
3:51 PM 63.0 °F - 52.0 °F 67% 30.10 in 10.0 mi East 12.7 mph - N/A   Scattered Clouds
4:30 PM 60.8 °F - 51.8 °F 72% 30.10 in 10.0 mi East 13.8 mph - N/A   Mostly Cloudy
4:51 PM 60.1 °F - 52.0 °F 75% 30.10 in 10.0 mi ENE 12.7 mph - N/A   Overcast
5:11 PM 60.8 °F - 51.8 °F 72% 30.10 in 10.0 mi East 13.8 mph - N/A   Overcast
5:44 PM 59.0 °F - 53.6 °F 82% 30.10 in 9.0 mi ENE 15.0 mph - N/A   Overcast
5:51 PM 59.0 °F - 53.1 °F 81% 30.10 in 10.0 mi ENE 15.0 mph - N/A   Overcast
6:02 PM 59.0 °F - 53.6 °F 82% 30.09 in 10.0 mi ENE 15.0 mph - N/A   Overcast
6:51 PM 57.9 °F - 54.0 °F 87% 30.10 in 5.0 mi NE 13.8 mph - 0.00 in   Light Drizzle
7:51 PM 57.0 °F - 54.0 °F 89% 30.08 in 4.0 mi NE 12.7 mph - 0.00 in Rain Light Rain
8:51 PM 57.0 °F - 54.0 °F 89% 30.06 in 5.0 mi ENE 9.2 mph - 0.01 in   Light Drizzle
9:51 PM 57.9 °F - 54.0 °F 87% 30.05 in 5.0 mi ENE 17.3 mph - 0.00 in   Overcast
10:51 PM 57.9 °F - 55.0 °F 90% 30.03 in 6.0 mi ENE 15.0 mph - N/A   Overcast
11:51 PM 57.9 °F - 55.0 °F 90% 30.00 in 5.0 mi ENE 15.0 mph - N/A   Overcast